Location: Brown Observing Site
(43.4354°N, 116.3366°W)
Time: 19:41:47
(UTC-07:00)

Envisat - Pass Details

Date: 31 October 2019
Orbit: 764 x 766 km, 98.1° (Epoch: 16 November)

Event Time Altitude Azimuth Distance (km) Brightness Sun altitude
Rises 21:22:21 0° 221° (SW) 3,219 6.6 -30.3°
Reaches altitude 10° 21:26:30 10° 254° (WSW) 2,300 6.2 -31.0°
Maximum altitude 21:28:04 11° 273° (W) 2,211 6.2 -31.3°
Drops below altitude 10° 21:29:38 10° 291° (WNW) 2,305 6.3 -31.6°
Sets 21:33:50 0° 325° (NW) 3,239 6.8 -32.3°
